• In Uzbekistan
  • List of Countries
  • For 7 days
  • Water Temperature
  • Satellite Maps
  • Weather Map
  • Weather Widgets
  • user-avatar
    Login

    Hourly Weather Malanje

    Today, 26 April, Wednesday

    Time Temperature Precipitation Wind Pressure Humidity
    00:00 +18°C° 0.1 mm 1 mps 664 mmHg 78%
    01:00 +19°C° 0 mm 1 mps 664 mmHg 75%
    02:00 +19°C° 0.1 mm 1 mps 664 mmHg 76%
    03:00 +19°C° 0.1 mm 1 mps 664 mmHg 76%
    04:00 +17°C° 0.1 mm 0 mps 664 mmHg 76%
    05:00 +20°C° 0.3 mm 1 mps 665 mmHg 77%
    06:00 +20°C° 0.3 mm 1 mps 665 mmHg 78%
    07:00 +20°C° 0 mm 0 mps 666 mmHg 80%
    08:00 +22°C° 0.2 mm 1 mps 667 mmHg 78%
    09:00 +23°C° 0.2 mm 1 mps 667 mmHg 77%
    10:00 +24°C° 0.2 mm 2 mps 667 mmHg 76%
    11:00 +25°C° 0.1 mm 2 mps 667 mmHg 75%
    12:00 +25°C° 0.1 mm 3 mps 666 mmHg 73%
    13:00 +26°C° 0.1 mm 3 mps 666 mmHg 72%
    14:00 +26°C° 0 mm 3 mps 666 mmHg 72%
    15:00 +26°C° 0 mm 3 mps 665 mmHg 71%
    16:00 +26°C° 0 mm 2 mps 665 mmHg 71%
    17:00 +24°C° 0.1 mm 2 mps 665 mmHg 78%
    18:00 +22°C° 0.1 mm 1 mps 665 mmHg 85%
    19:00 +19°C° 0.1 mm 0 mps 665 mmHg 92%
    20:00 +18°C° 0.3 mm 0 mps 665 mmHg 92%
    21:00 +18°C° 0.3 mm 0 mps 665 mmHg 93%
    22:00 +18°C° 0.3 mm 0 mps 665 mmHg 94%
    23:00 +17°C° 0.1 mm 0 mps 665 mmHg 94%

    Tomorrow, 27 April, Thursday

    Time Temperature Precipitation Wind Pressure Humidity
    00:00 +17°C° 0.1 mm 0 mps 665 mmHg 94%
    01:00 +19°C° 0.1 mm 1 mps 665 mmHg 94%
    02:00 +19°C° 0.1 mm 1 mps 665 mmHg 94%
    03:00 +19°C° 0.1 mm 1 mps 664 mmHg 94%
    04:00 +19°C° 0.1 mm 1 mps 664 mmHg 94%
    05:00 +20°C° 0 mm 1 mps 665 mmHg 92%
    06:00 +20°C° 0 mm 1 mps 665 mmHg 91%
    07:00 +21°C° 0 mm 1 mps 666 mmHg 89%
    08:00 +23°C° 0 mm 2 mps 667 mmHg 82%
    09:00 +25°C° 0 mm 3 mps 667 mmHg 75%
    10:00 +27°C° 0 mm 4 mps 668 mmHg 68%
    11:00 +28°C° 0.3 mm 4 mps 667 mmHg 66%
    12:00 +28°C° 0.3 mm 4 mps 667 mmHg 64%
    13:00 +29°C° 0.3 mm 4 mps 667 mmHg 62%
    14:00 +28°C° 0.1 mm 4 mps 666 mmHg 63%
    15:00 +28°C° 0.1 mm 3 mps 665 mmHg 65%
    16:00 +28°C° 0.1 mm 3 mps 665 mmHg 67%
    17:00 +26°C° 0.4 mm 3 mps 665 mmHg 74%
    18:00 +24°C° 0.4 mm 2 mps 665 mmHg 80%
    19:00 +21°C° 0.4 mm 2 mps 665 mmHg 87%
    20:00 +21°C° 1.5 mm 2 mps 665 mmHg 89%
    21:00 +21°C° 1.5 mm 1 mps 665 mmHg 92%
    22:00 +20°C° 1.5 mm 1 mps 666 mmHg 94%
    23:00 +20°C° 1.7 mm 1 mps 666 mmHg 94%

    Day after tomorrow, 28 April, Friday

    Time Temperature Precipitation Wind Pressure Humidity
    00:00 +20°C° 1.7 mm 1 mps 666 mmHg 94%
    01:00 +20°C° 1.7 mm 1 mps 666 mmHg 94%
    02:00 +20°C° 1.2 mm 1 mps 665 mmHg 94%
    03:00 +20°C° 1.2 mm 1 mps 665 mmHg 94%
    04:00 +19°C° 1.2 mm 1 mps 665 mmHg 95%
    05:00 +20°C° 0 mm 1 mps 666 mmHg 94%
    06:00 +19°C° 0 mm 2 mps 666 mmHg 94%
    07:00 +20°C° 0 mm 2 mps 667 mmHg 93%
    08:00 +21°C° 0.1 mm 3 mps 667 mmHg 87%
    09:00 +24°C° 0.1 mm 3 mps 668 mmHg 80%
    10:00 +26°C° 0.1 mm 4 mps 669 mmHg 73%
    11:00 +26°C° 0.2 mm 4 mps 668 mmHg 70%
    12:00 +27°C° 0.2 mm 4 mps 667 mmHg 66%
    13:00 +28°C° 0.2 mm 4 mps 667 mmHg 63%
    14:00 +28°C° 0.1 mm 3 mps 666 mmHg 64%
    15:00 +28°C° 0.1 mm 3 mps 666 mmHg 65%
    16:00 +28°C° 0.1 mm 2 mps 665 mmHg 67%
    17:00 +26°C° 0 mm 2 mps 665 mmHg 73%
    18:00 +24°C° 0 mm 2 mps 665 mmHg 79%
    19:00 +21°C° 0 mm 2 mps 666 mmHg 86%
    20:00 +22°C° 0 mm 1 mps 666 mmHg 87%
    21:00 +21°C° 0 mm 1 mps 666 mmHg 89%
    22:00 +21°C° 0 mm 1 mps 667 mmHg 90%
    23:00 +20°C° 0.3 mm 1 mps 666 mmHg 91%

    29 April, Saturday

    Time Temperature Precipitation Wind Pressure Humidity
    00:00 +20°C° 0.3 mm 1 mps 666 mmHg 92%
    01:00 +19°C° 0.3 mm 1 mps 666 mmHg 93%
    02:00 +19°C° 0.6 mm 1 mps 666 mmHg 94%
    03:00 +19°C° 0.6 mm 1 mps 665 mmHg 94%
    04:00 +18°C° 0.6 mm 1 mps 665 mmHg 95%
    05:00 +19°C° 0 mm 1 mps 666 mmHg 94%
    06:00 +20°C° 0 mm 1 mps 667 mmHg 93%
    07:00 +19°C° 0 mm 2 mps 667 mmHg 91%
    08:00 +21°C° 0 mm 3 mps 668 mmHg 83%
    09:00 +24°C° 0 mm 3 mps 669 mmHg 75%
    10:00 +26°C° 0 mm 4 mps 669 mmHg 67%
    11:00 +27°C° 0 mm 4 mps 668 mmHg 63%
    12:00 +28°C° 0 mm 4 mps 668 mmHg 60%
    13:00 +29°C° 0 mm 4 mps 667 mmHg 56%
    14:00 +29°C° 0 mm 4 mps 667 mmHg 57%
    15:00 +29°C° 0 mm 3 mps 666 mmHg 59%
    16:00 +29°C° 0 mm 3 mps 666 mmHg 60%
    17:00 +26°C° 0 mm 2 mps 666 mmHg 67%
    18:00 +24°C° 0 mm 2 mps 665 mmHg 73%
    19:00 +22°C° 0 mm 1 mps 665 mmHg 80%
    20:00 +21°C° 0 mm 1 mps 665 mmHg 81%
    21:00 +21°C° 0 mm 1 mps 666 mmHg 82%
    22:00 +20°C° 0 mm 1 mps 666 mmHg 83%
    23:00 +20°C° 0 mm 1 mps 666 mmHg 83%

    30 April, Sunday

    Time Temperature Precipitation Wind Pressure Humidity
    00:00 +20°C° 0 mm 1 mps 665 mmHg 84%
    01:00 +19°C° 0 mm 1 mps 665 mmHg 85%
    02:00 +18°C° 0 mm 2 mps 665 mmHg 85%
    03:00 +18°C° 0 mm 2 mps 665 mmHg 84%
    04:00 +18°C° 0 mm 2 mps 665 mmHg 84%
    05:00 +18°C° 0 mm 2 mps 666 mmHg 83%
    06:00 +18°C° 0 mm 3 mps 666 mmHg 83%
    07:00 +18°C° 0 mm 3 mps 667 mmHg 83%
    08:00 +21°C° 0 mm 4 mps 667 mmHg 75%
    09:00 +23°C° 0 mm 4 mps 668 mmHg 68%
    10:00 +26°C° 0 mm 5 mps 668 mmHg 60%
    11:00 +27°C° 0 mm 5 mps 668 mmHg 56%
    12:00 +28°C° 0 mm 4 mps 667 mmHg 53%
    13:00 +29°C° 0 mm 4 mps 666 mmHg 49%
    14:00 +28°C° 0 mm 4 mps 666 mmHg 51%
    15:00 +28°C° 0 mm 3 mps 666 mmHg 53%
    16:00 +28°C° 0 mm 2 mps 665 mmHg 56%
    17:00 +26°C° 0 mm 2 mps 665 mmHg 62%
    18:00 +23°C° 0 mm 2 mps 665 mmHg 68%
    19:00 +20°C° 0 mm 2 mps 665 mmHg 74%
    20:00 +19°C° 0 mm 2 mps 665 mmHg 75%
    21:00 +20°C° 0 mm 1 mps 665 mmHg 76%
    22:00 +19°C° 0 mm 1 mps 666 mmHg 77%
    23:00 +18°C° 0 mm 2 mps 665 mmHg 76%

    1 May, Monday

    Time Temperature Precipitation Wind Pressure Humidity
    00:00 +18°C° 0 mm 2 mps 665 mmHg 75%
    01:00 +18°C° 0 mm 2 mps 665 mmHg 74%
    02:00 +17°C° 0 mm 2 mps 665 mmHg 74%
    03:00 +17°C° 0 mm 2 mps 665 mmHg 75%
    04:00 +17°C° 0 mm 2 mps 665 mmHg 75%
    05:00 +17°C° 0 mm 2 mps 665 mmHg 76%
    06:00 +17°C° 0 mm 2 mps 666 mmHg 78%
    07:00 +17°C° 0 mm 2 mps 666 mmHg 79%
    08:00 +20°C° 0 mm 3 mps 667 mmHg 71%
    09:00 +22°C° 0 mm 4 mps 667 mmHg 63%
    10:00 +26°C° 0 mm 5 mps 668 mmHg 55%
    11:00 +26°C° 0 mm 4 mps 667 mmHg 52%
    12:00 +27°C° 0 mm 4 mps 667 mmHg 49%
    13:00 +28°C° 0 mm 4 mps 666 mmHg 46%
    14:00 +28°C° 0 mm 3 mps 666 mmHg 48%
    15:00 +28°C° 0 mm 3 mps 665 mmHg 50%
    16:00 +28°C° 0 mm 2 mps 665 mmHg 52%
    17:00 +25°C° 0 mm 2 mps 665 mmHg 59%
    18:00 +22°C° 0 mm 1 mps 665 mmHg 66%
    19:00 +20°C° 0 mm 1 mps 664 mmHg 74%
    20:00 +19°C° 0 mm 1 mps 665 mmHg 75%
    21:00 +19°C° 0 mm 1 mps 665 mmHg 76%
    22:00 +18°C° 0 mm 1 mps 665 mmHg 77%
    23:00 +18°C° 0 mm 1 mps 665 mmHg 77%
    Show more